Satellite-Ground Cal/Val Site Overpasses Predictions

Prediction of Satellite NPP Overpassing Cal/Val Site: Antarctic Dome C

Ground Cal/Val Site Location: Latitude: -75.10, Longitude: 123.35; Satellite-Ground Site NADIR distance within 100 km.

Table of predicted overpasses for the next 14.0 days since TLE Epoch: 9/6/2012
Interval Starting Time Ending Time Minimum Distance Time Minimum Distance (km)
1 09/07/2012 14:46:38 09/07/2012 14:47:06 09/07/2012 14:46:52 16.65
2 09/09/2012 07:29:26 09/09/2012 07:29:55 09/09/2012 07:29:41 2.82
3 09/12/2012 14:52:50 09/12/2012 14:53:19 09/12/2012 14:53:05 19.60
4 09/13/2012 14:34:09 09/13/2012 14:34:22 09/13/2012 14:34:15 87.44
5 09/14/2012 07:35:40 09/14/2012 07:36:08 09/14/2012 07:35:54 36.08
6 09/15/2012 07:16:53 09/15/2012 07:17:13 09/15/2012 07:17:03 74.02
7 09/17/2012 14:59:06 09/17/2012 14:59:30 09/17/2012 14:59:18 56.38
8 09/18/2012 14:40:15 09/18/2012 14:40:40 09/18/2012 14:40:28 52.79
9 09/19/2012 07:41:55 09/19/2012 07:42:15 09/19/2012 07:42:05 71.05
